Home > Weather > Libreville > Past weeks

Flag for Gabon Past Weather in Libreville, Gabon — Yesterday and Last 2 Weeks

Now
79 °F

Passing clouds.


Feels Like: 81 °F
Forecast: 75 / 80 °F
Wind: 9 mph from Southwest

Location: Libreville Airport

Current Time: Jul 26, 2016 at 5:08:40 PM

Latest Report: Jul 26, 2016 at 4:00 PM


Visibility: N/A

Pressure: 29.89 "Hg

Humidity: 74%

Dew Point: 70 °F

Location of LibrevilleLocation

Past Weather in Libreville — Graph

°F

Libreville Temperature Yesterday

Maximum temperature yesterday: 82 °F (at 3:00 PM)
Minimum temperature yesterday: 75 °F (at 4:00 AM)
Average temperature yesterday: 78 °F

High & Low Weather Summary for the Past Weeks

 TemperatureHumidityPressure
High84 °F (Jul 11, 3:00 PM)94% (Jul 19, 5:00 AM)30.01 "Hg (Jul 19, 5:00 AM)
Low75 °F (Jul 12, 6:00 AM)58% (Jul 16, 2:00 PM)29.83 "Hg (Jul 16, 3:00 PM)
Average79 °F77%29.93 "Hg
* Reported Jul 11 3:00 PM — Jul 26 3:00 PM, Libreville, Weather by CustomWeather, © 2016

Note: Actual official high and low records may vary slightly from our data, if they occured in-between our weather recording intervals... More about our weather records

Advertising

Libreville Weather History for the Previous 24 Hours

Scroll right to see more
 ConditionsComfort  
Time TempWeatherWind HumidityBarometerVisibility
3:00 PM
Tue, Jul 26
82 °FPassing clouds.9 mph66%29.89 "HgN/A
2:00 PM84 °FPassing clouds.5 mph58%29.92 "HgN/A
1:00 PM81 °FPassing clouds.5 mph66%29.95 "HgN/A
12:00 PM81 °FPassing clouds.7 mph62%29.95 "HgN/A
11:00 AM79 °FPartly sunny.7 mph65%29.98 "HgN/A
10:00 AM77 °FPassing clouds.12 mph65%29.98 "HgN/A
9:00 AM75 °FBroken clouds.9 mph69%29.98 "Hg6 mi
8:00 AM75 °FOvercast.10 mph65%29.95 "Hg6 mi
7:00 AM75 °FPassing clouds.8 mph69%29.95 "Hg6 mi
6:00 AM75 °FPassing clouds.9 mph65%29.95 "Hg6 mi
5:00 AM75 °FPassing clouds.10 mph69%29.92 "Hg6 mi
4:00 AM75 °FPassing clouds.8 mph74%29.92 "Hg6 mi
3:00 AM75 °FPassing clouds.7 mph69%29.92 "Hg6 mi
2:00 AM75 °FPassing clouds.6 mph65%29.92 "Hg6 mi
1:00 AM77 °FPassing clouds.8 mph65%29.92 "Hg6 mi
12:00 AM77 °FPassing clouds.9 mph74%29.95 "Hg6 mi
11:00 PM
Mon, Jul 25
77 °FPassing clouds.7 mph79%29.95 "Hg6 mi
10:00 PM79 °FPassing clouds.8 mph74%29.92 "Hg6 mi
9:00 PM79 °FPassing clouds.9 mph74%29.92 "Hg6 mi
8:00 PM79 °FPassing clouds.8 mph74%29.92 "Hg6 mi
7:00 PM79 °FPassing clouds.7 mph79%29.89 "Hg6 mi
6:00 PM79 °FPassing clouds.7 mph74%29.89 "Hg6 mi
5:00 PM79 °FPassing clouds.7 mph79%29.89 "Hg6 mi
Weather by CustomWeather, © 2016

See weather overviewHow to use our weather pages